User: anonymous   Login
Location: Caltech
(34.1382°N, 118.1253°W)
Time: 13:03:40
(UTC-07:00)
Language:

CZ-4B DEB - Orbit

View from above orbital plane
View from above orbital plane
View from above satellite
View from above satellite

Ground track
Ground track

The orbit data is extracted from the following two-line orbital elements,

1 27433U 02024D   15089.49554527  .00000587  00000-0  34542-3 0  9992
2 27433 098.8659 056.1785 0014434 174.3347 185.7990 14.11840747662902
Epoch (UTC): 30 March 2015 11:53:35
Eccentricity: 0.0014434
inclination: 98.8659°
perigee height: 842 km
apogee height: 863 km
right ascension of ascending node: 56.1785°
argument of perigee: 174.3347°
revolutions per day: 14.11840747
mean anomaly at epoch: 185.7990°
orbit number at epoch: 66290

The dashed part of the orbit path shows where the satellite is in the earth's shadow,  

DLR